[[{"header":{"parameterUnit":"m.s-1","parameterCategory":1,"la1":30.2991,"la2":30.254,"lo1":-89.0895,"lo2":-89.0444,"dx":0.0017,"dy":0.0017,"nx":28,"ny":28,"refTime":"2022-11-05T21:00:00:Z","depth":0,"parameterNumber":2,"parameterNumberName":"U-component_of_WINDS"},"data":[0,0,0,0,0,0,0,0,0,0,0,0,0,0,0,0,0,0,0,0,0,0,0,0,0,0,0,0,0,0,0,0,0,0,0,0,0,0,0,0,0,0,0,0,0,0,0,0,0,0,0,0,0,0,0,0,0,0,-1.7091,-1.7092,0,-1.7171,-1.7172,-1.7173,-1.7157,-1.7155,-1.7154,-1.7153,-1.7236,-1.724,-1.7243,0,0,0,0,0,0,0,0,0,0,0,0,0,-1.6927,-1.693,-1.7091,-1.7092,-1.7093,-1.7171,-1.7172,-1.7173,-1.7157,-1.7155,-1.7154,-1.7152,-1.7235,-1.7239,-1.7244,0,0,0,0,0,0,0,0,0,0,0,0,0,-1.7002,-1.6931,-1.7091,-1.7095,-1.7096,-1.717,-1.7172,-1.7173,-1.7158,-1.7155,-1.7153,-1.7151,-1.7234,-1.7239,-1.7244,-1.7321,0,0,-1.7261,-1.7263,0,0,0,0,0,0,0,0,-1.6998,-1.7008,-1.7093,-1.7094,-1.7096,-1.7152,-1.7145,-1.7223,-1.7158,-1.7134,-1.7153,-1.715,-1.721,-1.7217,-1.7237,-1.7325,-1.7329,-1.7261,-1.7265,-1.7267,-1.7268,0,0,0,0,0,0,0,-1.6993,-1.7004,-1.7123,-1.7094,-1.7096,-1.7093,-1.7101,-1.7159,-1.7183,-1.7136,-1.7135,-1.7145,-1.721,-1.7232,-1.7239,-1.733,-1.7261,-1.7266,-1.7269,-1.7271,-1.7486,-1.7488,0,0,0,0,0,0,-1.6986,-1.7,-1.712,-1.7125,-1.704,-1.7098,-1.7107,-1.7136,-1.7183,-1.7188,-1.7146,-1.7144,-1.7224,-1.7233,-1.7242,-1.7336,-1.7267,-1.7272,-1.7275,-1.7483,-1.7486,-1.7489,0,0,0,0,0,0,-1.6982,-1.6997,-1.7117,-1.7062,-1.7077,-1.7103,-1.7136,-1.7139,-1.716,-1.7191,-1.7195,-1.7164,-1.7222,-1.7234,-1.7302,-1.7339,-1.7274,-1.7279,-1.748,-1.7484,-1.7488,-1.7524,0,0,0,0,0,0,-1.6978,-1.6996,-1.7025,-1.7063,-1.708,-1.7175,-1.7138,-1.7142,-1.7169,-1.7166,-1.7208,-1.7213,-1.7222,-1.7294,-1.7307,-1.7345,-1.7283,-1.7477,-1.7482,-1.7487,-1.752,-1.7528,-1.7536,0,0,0,0,0,-1.6972,-1.7032,-1.7026,-1.7041,-1.7117,-1.7177,-1.7187,-1.7195,-1.7172,-1.7202,-1.7222,-1.7212,-1.7332,-1.7301,-1.7316,-1.7356,-1.7475,-1.7481,-1.7486,-1.7516,-1.7527,-1.7536,0,0,0,0,0,0,-1.6998,-1.7037,-1.7031,-1.7105,-1.7138,-1.7174,-1.7212,-1.7206,-1.7247,-1.7242,-1.7251,-1.7261,-1.733,-1.7349,-1.7314,-1.7433,-1.74,-1.7409,-1.7418,-1.7428,-1.7436,-1.7431,-1.7288,0,0,0,0,0,-1.7012,-1.7056,-1.7088,-1.7151,-1.7167,-1.7187,-1.7213,-1.7217,-1.7251,-1.7265,-1.729,-1.7324,-1.737,-1.74,-1.7443,-1.7522,-1.7531,-1.7556,-1.7565,-1.7571,-1.7579,-1.7623,-1.7635,-1.7507,-1.7507,-1.7507,0,0,-1.7042,-1.7069,-1.7097,-1.7157,-1.7182,-1.7229,-1.7199,-1.725,-1.7285,-1.7273,-1.7339,-1.7358,-1.7397,-1.747,-1.7504,-1.7488,-1.7617,-1.7578,-1.7583,-1.7588,-1.763,-1.7643,-1.7653,-1.7511,-1.751,-1.751,0,0,-1.7121,-1.7145,-1.72,-1.7226,-1.7265,-1.7278,-1.7291,-1.7329,-1.7341,-1.7406,-1.7399,-1.7441,-1.7519,-1.7547,-1.7572,-1.7662,-1.7655,-1.7675,-1.7719,-1.7762,-1.7772,-1.7781,-1.7815,-1.7826,-1.7683,-1.7683,-1.7683,0,-1.7154,-1.7223,-1.7229,-1.7281,-1.7308,-1.7299,-1.7355,-1.738,-1.7432,-1.7452,-1.7433,-1.7531,-1.7557,-1.7638,-1.7659,-1.7679,-1.7696,-1.7672,-1.777,-1.7779,-1.7788,-1.782,-1.7832,-1.7685,-1.7685,-1.7685,-1.7685,0,-1.7262,-1.7311,-1.7351,-1.74,-1.7432,-1.7486,-1.75,-1.7531,-1.7532,-1.7547,-1.7614,-1.7644,-1.7694,-1.7713,-1.7714,-1.7794,-1.7784,-1.7767,-1.7735,-1.7802,-1.7832,-1.7845,-1.7689,-1.7688,-1.7687,-1.7687,0,0,-1.7362,-1.7413,-1.7428,-1.7451,-1.7493,-1.7531,-1.7584,-1.7632,-1.766,-1.7695,-1.7741,-1.7807,-1.7793,-1.7821,-1.7825,-1.7862,-1.7933,-1.7842,-1.7843,-1.7859,-1.8025,-1.8038,-1.8052,-1.7928,-1.793,-1.7932,-1.8022,0,-1.7446,-1.754,-1.7546,-1.7632,-1.7677,-1.7669,-1.7716,-1.7747,-1.7762,-1.7803,-1.782,-1.7867,-1.7844,-1.7861,-1.7897,-1.7917,-1.7967,-1.791,-1.7973,-1.7975,-1.7965,-1.8068,-1.8082,-1.8166,-1.8034,-1.8036,-1.8037,0,-1.7557,-1.7596,-1.7685,-1.7722,-1.7741,-1.7783,-1.7828,-1.7867,-1.7903,-1.7911,-1.7942,-1.7941,-1.7997,-1.7961,-1.804,-1.8001,-1.8026,-1.804,-1.8043,-1.8051,-1.8012,-1.808,-1.8193,-1.8206,-1.8056,-1.8054,-1.8053,0,-1.7622,-1.7697,-1.776,-1.778,-1.7823,-1.7853,-1.7872,-1.7906,-1.7934,-1.7974,-1.7993,-1.8038,-1.8064,-1.8099,-1.8111,-1.8084,-1.8189,-1.8154,-1.8199,-1.8199,-1.8223,-1.8222,-1.8343,-1.8237,-1.8236,-1.8236,-1.8236,0,-1.7717,-1.7773,-1.779,-1.783,-1.7892,-1.7899,-1.7961,-1.7979,-1.8008,-1.8052,-1.8046,-1.8087,-1.8099,-1.8143,-1.8152,-1.8216,-1.8227,-1.8236,-1.8239,-1.8238,-1.8237,-1.8257,-1.8252,-1.824,-1.8239,-1.8238,-1.8238,0,-1.7802,-1.7815,-1.7884,-1.7919,-1.7929,-1.7974,-1.8004,-1.8043,-1.8056,-1.8111,-1.8125,-1.8147,-1.8197,-1.8212,-1.8273,-1.8279,-1.8355,-1.8351,-1.8343,-1.8344,-1.8388,-1.8385,-1.8528,-1.8548,-1.8426,-1.8427,-1.8428,0,-1.7862,-1.7905,-1.7944,-1.7972,-1.7993,-1.8039,-1.8068,-1.8076,-1.8107,-1.8151,-1.8184,-1.8234,-1.8274,-1.8356,-1.8378,-1.8425,-1.8423,-1.847,-1.843,-1.8429,-1.8426,-1.8424,-1.8429,-1.8478,-1.8479,-1.848,-1.8481,0,-1.7969,-1.7973,-1.8015,-1.8059,-1.8094,-1.813,-1.8164,-1.8187,-1.8201,-1.8236,-1.8287,-1.8318,-1.838,-1.8431,-1.8478,-1.8499,-1.8494,-1.8493,-1.8507,-1.8508,-1.8502,-1.8508,-1.8366,-1.8491,-1.849,-1.8489,-1.8488,-1.8488,-1.8044,-1.8082,-1.8116,-1.8163,-1.8189,-1.8221,-1.8259,-1.8277,-1.832,-1.8371,-1.8373,-1.8429,-1.8464,-1.8527,-1.8551,-1.8595,-1.8582,-1.86,-1.8606,-1.8611,-1.8615,-1.8493,-1.8604,-1.8604,-1.8603,-1.8603,-1.8603,0,-1.8152,-1.8173,-1.8216,-1.8264,-1.8301,-1.829,-1.8328,-1.836,-1.8409,-1.8442,-1.8481,-1.8541,-1.859,-1.8615,-1.8664,-1.8695,-1.8693,-1.8707,-1.8706,-1.8712,-1.8624,-1.8608,-1.8708,-1.8708,-1.8708,-1.8708,-1.8708,-1.8708,-1.8213,-1.8277,-1.8285,-1.8363,-1.8383,-1.8438,-1.846,-1.849,-1.8516,-1.8583,-1.8623,-1.8638,-1.8669,-1.8719,-1.8764,-1.877,-1.8789,-1.8805,-1.881,-1.8728,-1.8718,-1.8707,-1.8693,-1.8809,-1.8809,-1.8894,-1.8895,-1.8896]},{"header":{"parameterUnit":"m.s-1","parameterCategory":1,"la1":30.2991,"la2":30.254,"lo1":-89.0895,"lo2":-89.0444,"dx":0.0017,"dy":0.0017,"nx":28,"ny":28,"refTime":"2022-11-05T21:00:00:Z","depth":0,"parameterNumber":3,"parameterNumberName":"V-component_of_WINDS"},"data":[0,0,0,0,0,0,0,0,0,0,0,0,0,0,0,0,0,0,0,0,0,0,0,0,0,0,0,0,0,0,0,0,0,0,0,0,0,0,0,0,0,0,0,0,0,0,0,0,0,0,0,0,0,0,0,0,0,0,-2.4139,-2.4139,0,-2.4107,-2.4107,-2.4106,-2.4054,-2.4053,-2.4052,-2.4051,-2.4018,-2.4018,-2.4018,0,0,0,0,0,0,0,0,0,0,0,0,0,-2.4157,-2.4157,-2.4139,-2.4139,-2.4139,-2.4107,-2.4107,-2.4106,-2.4054,-2.4053,-2.4052,-2.4051,-2.4018,-2.4018,-2.4018,0,0,0,0,0,0,0,0,0,0,0,0,0,-2.4139,-2.4157,-2.414,-2.4109,-2.4106,-2.4107,-2.4107,-2.4106,-2.4054,-2.4053,-2.4051,-2.405,-2.4018,-2.4018,-2.4018,-2.4047,0,0,-2.4018,-2.4018,0,0,0,0,0,0,0,0,-2.4141,-2.4139,-2.4114,-2.4111,-2.4108,-2.4083,-2.4101,-2.4086,-2.4055,-2.4074,-2.4051,-2.4049,-2.4041,-2.4039,-2.4036,-2.4045,-2.4044,-2.4018,-2.4018,-2.4018,-2.4018,0,0,0,0,0,0,0,-2.4142,-2.414,-2.4127,-2.4114,-2.411,-2.4097,-2.4093,-2.4098,-2.4066,-2.4072,-2.4068,-2.4065,-2.4039,-2.4036,-2.4035,-2.4044,-2.4018,-2.4018,-2.4018,-2.4018,-2.4075,-2.4076,0,0,0,0,0,0,-2.4147,-2.4141,-2.4128,-2.4126,-2.4121,-2.4098,-2.4093,-2.4092,-2.4066,-2.406,-2.4066,-2.4063,-2.4037,-2.4035,-2.4034,-2.4065,-2.4018,-2.4018,-2.4018,-2.4073,-2.4075,-2.4077,0,0,0,0,0,0,-2.4148,-2.4147,-2.4129,-2.4132,-2.4129,-2.4099,-2.4098,-2.4092,-2.409,-2.4061,-2.4055,-2.4069,-2.4036,-2.4034,-2.4044,-2.4063,-2.4018,-2.4018,-2.4071,-2.4074,-2.4076,-2.4129,0,0,0,0,0,0,-2.4149,-2.4147,-2.4158,-2.4133,-2.4129,-2.414,-2.41,-2.4093,-2.409,-2.4085,-2.4063,-2.4057,-2.4034,-2.4044,-2.4044,-2.4063,-2.4018,-2.4069,-2.4072,-2.4075,-2.4126,-2.4133,-2.4139,0,0,0,0,0,-2.415,-2.4174,-2.4159,-2.4157,-2.4142,-2.4141,-2.4139,-2.4112,-2.4091,-2.4102,-2.4084,-2.4058,-2.4061,-2.4046,-2.4045,-2.4064,-2.4068,-2.4072,-2.4075,-2.4122,-2.4131,-2.4139,0,0,0,0,0,0,-2.4202,-2.417,-2.4153,-2.417,-2.4159,-2.4132,-2.4145,-2.4122,-2.4117,-2.4112,-2.4079,-2.4074,-2.4089,-2.4077,-2.4061,-2.409,-2.4061,-2.4064,-2.4097,-2.4106,-2.4112,-2.4115,-2.4018,0,0,0,0,0,-2.4216,-2.4218,-2.419,-2.4208,-2.4203,-2.4175,-2.4174,-2.4154,-2.4141,-2.4136,-2.4118,-2.4107,-2.4105,-2.4105,-2.4102,-2.4124,-2.4118,-2.4136,-2.4143,-2.4149,-2.4152,-2.4163,-2.4171,-2.4087,-2.4087,-2.4087,0,0,-2.4244,-2.4227,-2.423,-2.4218,-2.4207,-2.421,-2.4171,-2.4176,-2.4178,-2.4137,-2.4145,-2.4132,-2.4117,-2.4133,-2.414,-2.4124,-2.4174,-2.4153,-2.4158,-2.4158,-2.4167,-2.4175,-2.4182,-2.409,-2.4089,-2.4089,0,0,-2.4297,-2.4284,-2.4298,-2.4288,-2.4271,-2.4252,-2.4255,-2.4232,-2.4222,-2.423,-2.4199,-2.4201,-2.4199,-2.4189,-2.4184,-2.4233,-2.421,-2.4233,-2.4269,-2.428,-2.4287,-2.4292,-2.431,-2.4316,-2.4237,-2.4237,-2.4237,0,-2.4334,-2.4337,-2.4308,-2.4315,-2.431,-2.4272,-2.4286,-2.4277,-2.4261,-2.4259,-2.4242,-2.4238,-2.4225,-2.4239,-2.4251,-2.4248,-2.4251,-2.4236,-2.4288,-2.4293,-2.4298,-2.4315,-2.4321,-2.424,-2.4239,-2.4239,-2.4239,0,-2.4384,-2.4387,-2.44,-2.4385,-2.4382,-2.4392,-2.4364,-2.4364,-2.4345,-2.4328,-2.4337,-2.432,-2.4313,-2.4314,-2.4295,-2.4325,-2.4316,-2.4294,-2.4264,-2.431,-2.4324,-2.433,-2.4244,-2.4243,-2.4242,-2.4241,0,0,-2.4469,-2.4438,-2.4443,-2.4435,-2.4414,-2.4416,-2.4425,-2.4417,-2.4419,-2.4409,-2.4415,-2.4414,-2.4393,-2.4387,-2.4367,-2.4376,-2.4417,-2.4353,-2.4352,-2.4365,-2.4448,-2.4465,-2.4473,-2.4401,-2.4402,-2.4403,-2.445,0,-2.4518,-2.4531,-2.4504,-2.4523,-2.4525,-2.449,-2.4497,-2.4485,-2.4469,-2.4469,-2.4451,-2.4451,-2.4424,-2.442,-2.4428,-2.441,-2.4433,-2.4406,-2.4406,-2.4407,-2.4411,-2.4481,-2.4499,-2.4544,-2.4455,-2.4456,-2.4457,0,-2.4576,-2.4569,-2.4589,-2.4566,-2.4566,-2.4573,-2.4565,-2.4565,-2.455,-2.4538,-2.4532,-2.4508,-2.4515,-2.4485,-2.4494,-2.4477,-2.4475,-2.4467,-2.4468,-2.4467,-2.4435,-2.4482,-2.4558,-2.4565,-2.4466,-2.4465,-2.4465,0,-2.4637,-2.4632,-2.4643,-2.4637,-2.4612,-2.4618,-2.4607,-2.4592,-2.4589,-2.4581,-2.4579,-2.4573,-2.4569,-2.4565,-2.4539,-2.452,-2.4551,-2.452,-2.4541,-2.4542,-2.455,-2.455,-2.4627,-2.4549,-2.4549,-2.4549,-2.4548,0,-2.4694,-2.4707,-2.4669,-2.4676,-2.469,-2.4659,-2.4674,-2.466,-2.4646,-2.465,-2.4618,-2.4622,-2.4589,-2.4589,-2.4569,-2.4579,-2.4578,-2.4568,-2.4563,-2.4571,-2.4573,-2.457,-2.4566,-2.455,-2.455,-2.455,-2.4549,0,-2.4763,-2.4739,-2.4748,-2.4723,-2.4717,-2.4729,-2.4707,-2.4712,-2.4695,-2.4699,-2.4699,-2.4671,-2.467,-2.4644,-2.4637,-2.4624,-2.4642,-2.4631,-2.4647,-2.4644,-2.4666,-2.4665,-2.4744,-2.4753,-2.467,-2.4671,-2.4672,0,-2.4802,-2.4811,-2.4787,-2.4787,-2.4778,-2.4778,-2.4776,-2.4746,-2.4744,-2.4729,-2.4736,-2.4732,-2.4727,-2.4727,-2.4706,-2.47,-2.4689,-2.4717,-2.4688,-2.4696,-2.4689,-2.4689,-2.469,-2.4723,-2.4725,-2.4725,-2.4726,0,-2.4872,-2.4859,-2.4856,-2.4849,-2.4846,-2.4839,-2.483,-2.4832,-2.48,-2.4799,-2.4798,-2.4794,-2.4787,-2.4783,-2.4774,-2.4763,-2.474,-2.4735,-2.474,-2.4749,-2.4758,-2.4753,-2.4664,-2.4734,-2.4733,-2.4732,-2.4732,-2.4732,-2.4927,-2.4933,-2.4918,-2.4915,-2.4905,-2.4898,-2.4901,-2.4884,-2.4882,-2.4874,-2.4857,-2.4858,-2.4843,-2.4828,-2.4819,-2.482,-2.4805,-2.4812,-2.4814,-2.4816,-2.4821,-2.4758,-2.4818,-2.4818,-2.4817,-2.4817,-2.4817,0,-2.4995,-2.4983,-2.4982,-2.497,-2.4968,-2.4946,-2.4935,-2.4935,-2.4936,-2.4924,-2.492,-2.4918,-2.4915,-2.4894,-2.4888,-2.4892,-2.4881,-2.4892,-2.4891,-2.4889,-2.4834,-2.483,-2.4901,-2.4901,-2.4901,-2.4901,-2.4901,-2.4901,-2.5031,-2.5041,-2.5026,-2.5031,-2.5019,-2.502,-2.5016,-2.5008,-2.4999,-2.4998,-2.4995,-2.4981,-2.4966,-2.4958,-2.4954,-2.4948,-2.4947,-2.4962,-2.4952,-2.4901,-2.4893,-2.4885,-2.4882,-2.4962,-2.4962,-2.5007,-2.5007,-2.5008]}]]